QPF
0.00 0.00 0.00 0.00 0.00 0.00 0.00 0.00 0.00 0.00 0.00 0.00 0.00 0.00 0.00 0.00 0.00 0.00 0.00 0.00 0.00 0.00 0.00 0.00 0.00 0.00 0.00 0.00 0.00 0.00 0.00 0.00 0.00 0.01 0.01 0.01 0.01 0.00 0.00 0.00 0.00 0.00 0.00 0.00
0.00 0.00 0.00 0.00 0.00 0.00 0.00 0.00 0.00 0.00 0.00 0.00 0.00 0.00 0.00 0.00 0.00 0.00 0.00 0.00 0.00 0.00 0.00 0.00 0.00 0.00 0.00 0.00 0.00 0.00 0.00 0.00 0.00 0.00 0.00 0.00 0.00 0.00 0.00 0.00 0.00 0.00 0.00 0.00
0.00 0.00 0.00 0.00 0.00 0.00 0.00 0.00 0.00 0.00 0.00 0.00 0.00 0.00 0.00 0.00 0.00 0.00 0.00 0.00 0.00 0.00 0.00 0.00 0.00 0.00 0.00 0.00 0.00 0.00 0.00 0.00 0.00 0.00 0.00 0.00 0.00 0.00 0.00 0.00 0.00 0.00 0.00 0.00
0.00 0.00 0.00 0.00 0.00 0.00 0.00 0.00 0.00 0.00 0.00 0.00 0.00 0.00 0.00 0.00 0.00 0.00 0.00 0.00 0.00 0.00 0.00 0.00 0.00 0.00 0.00 0.00 0.00 0.00 0.00 0.00 0.00 0.00 0.00 0.00 0.00 0.00 0.00 0.00 0.00 0.00 0.00 0.00
0.00 0.00 0.00 0.00 0.00 0.00 0.00 0.00 0.00 0.00 0.00 0.00 0.00 0.00 0.00 0.00 0.00 0.00 0.00 0.00 0.00 0.00 0.00 0.00 0.00 0.00 0.00 0.00 0.00 0.00 0.00 0.00 0.00 0.00 0.00 0.00 0.00 0.00 0.00 0.00 0.00 0.00 0.00 0.00
0.00 0.00 0.00 0.00 0.00 0.00 0.00 0.00 0.00 0.00 0.00 0.00 0.00 0.00 0.00 0.00 0.00 0.00 0.00 0.00 0.00 0.00 0.00 0.00 0.00 0.00 0.00 0.00 0.00 0.00 0.00 0.00 0.00 0.00 0.00 0.00 0.00 0.00 0.00 0.00 0.00 0.00 0.00 0.00
0.00 0.00 0.00 0.00 0.00 0.00 0.00 0.00 0.00 0.00 0.00 0.00 0.00 0.00 0.00 0.00 0.00 0.00 0.00 0.00 0.00 0.00 0.00 0.00 0.00 0.00 0.00 0.00 0.00 0.00 0.00 0.00 0.00 0.00 0.00 0.00 0.00 0.00 0.00 0.00 0.00 0.00 0.00 0.00
0.00 0.00 0.00 0.00 0.00 0.00 0.00 0.00 0.00 0.00 0.00 0.00 0.00 0.00 0.00 0.00 0.00 0.00 0.00 0.00 0.00 0.00 0.00 0.00 0.00 0.00 0.00 0.00 0.00 0.00 0.00 0.00 0.00 0.00 0.00 0.00 0.00 0.00 0.00 0.00 0.00 0.00 0.00 0.00
0.00 0.00 0.00 0.00 0.00 0.00 0.00 0.00 0.00 0.00 0.00 0.00 0.00 0.00 0.00 0.00 0.00 0.00 0.00 0.00 0.00 0.00 0.00 0.00 0.00 0.00 0.00 0.00 0.00 0.00 0.00 0.00 0.00 0.00 0.00 0.00 0.00 0.00 0.00 0.00 0.00 0.00 0.00 0.00
0.00 0.00 0.00 0.00 0.00 0.00 0.00 0.00 0.00 0.00 0.00 0.00 0.00 0.00 0.00 0.00 0.00 0.00 0.00 0.00 0.00 0.00 0.00 0.00 0.00 0.00 0.00 0.00 0.00 0.00 0.00 0.00 0.00 0.00 0.00 0.00 0.00 0.00 0.00 0.00 0.00 0.00 0.00 0.00
0.00 0.00 0.00 0.00 0.00 0.00 0.00 0.00 0.00 0.00 0.00 0.00 0.00 0.00 0.00 0.00 0.00 0.00 0.00 0.00 0.00 0.00 0.00 0.00 0.00 0.00 0.00 0.00 0.00 0.00 0.00 0.00 0.00 0.00 0.00 0.00 0.00 0.00 0.00 0.00 0.00 0.00 0.00 0.00
0.00 0.00 0.00 0.00 0.00 0.00 0.00 0.00 0.00 0.00 0.00 0.00 0.00 0.00 0.00 0.00 0.00 0.00 0.00 0.00 0.00 0.00 0.00 0.00 0.00 0.00 0.00 0.00 0.00 0.00 0.00 0.00 0.00 0.00 0.00 0.00 0.00 0.00 0.00 0.00 0.00 0.00 0.00 0.00
0.00 0.01 0.01 0.01 0.00 0.00 0.00 0.00 0.00 0.00 0.00 0.00 0.00 0.00 0.00 0.00 0.00 0.00 0.00 0.00 0.00 0.00 0.00 0.00 0.00 0.00 0.00 0.00 0.00 0.00 0.00 0.00 0.00 0.00 0.00 0.00 0.00 0.00 0.00 0.00 0.00 0.00 0.00 0.00
0.00 0.00 0.00 0.00 0.00 0.00 0.00 0.00 0.00 0.00 0.00 0.00 0.00 0.00 0.00 0.00 0.00 0.00 0.00 0.00 0.00 0.00 0.00 0.00 0.00 0.00 0.00 0.00 0.00 0.00 0.00 0.00 0.00 0.00 0.00 0.00 0.00 0.00 0.00 0.00 0.00 0.00 0.00 0.00
0.00 0.00 0.00 0.00 0.00 0.00 0.00 0.00 0.00 0.00 0.00 0.00 0.00 0.00 0.00 0.00 0.00 0.00 0.00 0.00 0.00 0.00 0.00 0.00 0.00 0.00 0.00 0.00 0.00 0.00 0.00 0.00 0.00 0.00 0.00 0.00 0.00 0.00 0.00 0.00 0.00 0.00 0.00 0.00
0.00 0.00 0.00 0.00 0.00 0.00 0.00 0.00 0.00 0.00 0.00 0.00 0.00 0.00 0.00 0.00 0.00 0.00 0.00 0.00 0.00 0.00 0.00 0.00 0.00 0.00 0.00 0.00 0.00 0.00 0.00 0.00 0.00 0.00 0.00 0.00 0.00 0.00 0.00 0.00 0.00 0.00 0.00 0.00
0.00 0.00 0.00 0.00 0.00 0.00 0.00 0.00 0.00 0.00 0.00 0.00 0.00 0.00 0.00 0.00 0.00 0.00 0.00 0.00 0.00 0.00 0.00 0.00 0.00 0.00 0.00 0.00 0.00 0.00 0.00 0.00 0.00 0.00 0.00 0.00 0.00 0.00 0.00 0.00 0.00 0.00 0.00 0.00
0.01 0.00 0.00 0.00 0.00 0.01 0.00 0.00 0.00 0.00 0.00 0.00 0.00 0.00 0.00 0.00 0.00 0.00 0.00 0.00 0.00 0.00 0.00 0.00 0.00 0.00 0.00 0.00 0.00 0.00 0.00 0.00 0.00 0.00 0.00 0.00 0.00 0.00 0.00 0.00 0.00 0.00 0.00 0.00
0.00 0.00 0.01 0.01 0.01 0.00 0.00 0.00 0.00 0.00 0.00 0.00 0.00 0.00 0.00 0.00 0.00 0.00 0.00 0.00 0.00 0.00 0.00 0.00 0.00 0.00 0.00 0.00 0.00 0.00 0.00 0.00 0.00 0.00 0.00 0.00 0.00 0.00 0.00 0.00 0.00 0.00 0.00 0.00
0.00 0.00 0.01 0.01 0.00 0.00 0.00 0.00 0.00 0.00 0.00 0.00 0.00 0.00 0.00 0.00 0.00 0.00 0.00 0.00 0.00 0.00 0.00 0.00 0.00 0.00 0.00 0.00 0.00 0.00 0.00 0.00 0.00 0.00 0.00 0.00 0.00 0.00 0.00 0.00 0.00 0.00 0.00 0.00
0.01 0.01 0.01 0.01 0.00 0.00 0.00 0.00 0.00 0.00 0.00 0.00 0.00 0.00 0.00 0.00 0.00 0.00 0.00 0.00 0.00 0.00 0.00 0.00 0.00 0.00 0.00 0.00 0.00 0.00 0.00 0.00 0.00 0.00 0.00 0.00 0.00 0.00 0.00 0.00 0.00 0.00 0.00 0.00
0.00 0.00 0.00 0.00 0.00 0.00 0.00 0.00 0.00 0.00 0.00 0.00 0.00 0.00 0.00 0.00 0.00 0.00 0.00 0.00 0.00 0.00 0.00 0.00 0.00 0.00 0.00 0.00 0.00 0.00 0.00 0.00 0.00 0.00 0.00 0.00 0.00 0.00 0.00 0.00 0.00 0.00 0.00 0.00
0.00 0.00 0.00 0.00 0.00 0.00 0.00 0.00 0.00 0.00 0.00 0.00 0.00 0.00 0.00 0.00 0.00 0.00 0.00 0.00 0.00 0.00 0.00 0.00 0.00 0.00 0.00 0.00 0.00 0.00 0.00 0.00 0.00 0.00 0.00 0.00 0.00 0.00 0.00 0.00 0.00 0.00 0.00 0.00
0.00 0.00 0.00 0.00 0.00 0.00 0.00 0.00 0.00 0.00 0.00 0.00 0.00 0.00 0.00 0.00 0.00 0.00 0.00 0.00 0.00 0.00 0.00 0.00 0.00 0.00 0.00 0.00 0.00 0.00 0.00 0.00 0.00 0.00 0.00 0.00 0.00 0.00 0.00 0.00 0.00 0.00 0.00 0.00
0.00 0.00 0.00 0.00 0.00 0.00 0.00 0.00 0.00 0.00 0.00 0.00 0.00 0.00 0.00 0.00 0.00 0.00 0.00 0.00 0.00 0.00 0.00 0.00 0.00 0.00 0.00 0.00 0.00 0.00 0.00 0.00 0.00 0.00 0.00 0.00 0.00 0.00 0.00 0.00 0.00 0.00 0.00 0.00
0.00 0.00 0.00 0.00 0.00 0.00 0.00 0.00 0.00 0.00 0.00 0.00 0.00 0.00 0.00 0.00 0.00 0.00 0.00 0.00 0.00 0.00 0.00 0.00 0.00 0.00 0.00 0.00 0.00 0.00 0.00 0.00 0.00 0.00 0.00 0.00 0.00 0.00 0.00 0.00 0.00 0.00 0.00 0.00
MSLP
1013.36 1013.79 1014.20 1014.60 1014.96 1015.28 1015.56 1015.78 1015.93 1015.98 1015.90 1015.66 1015.27 1014.72 1014.05 1013.33 1012.62 1012.00 1011.53 1011.25 1011.19 1011.34 1011.66 1012.10 1012.60 1013.14 1013.66 1014.16 1014.65 1015.12 1015.61 1016.12 1016.65 1017.20 1017.75 1018.29 1018.79 1019.24 1019.62 1019.96 1020.25 1020.51 1020.75 1020.98
1013.17 1013.54 1013.91 1014.29 1014.67 1015.04 1015.39 1015.70 1015.92 1016.01 1015.93 1015.66 1015.18 1014.53 1013.73 1012.88 1012.05 1011.33 1010.80 1010.50 1010.45 1010.62 1011.00 1011.50 1012.08 1012.67 1013.25 1013.80 1014.32 1014.82 1015.33 1015.85 1016.40 1016.97 1017.55 1018.11 1018.63 1019.10 1019.51 1019.87 1020.18 1020.46 1020.73 1020.99
1012.85 1013.18 1013.53 1013.91 1014.32 1014.75 1015.18 1015.57 1015.85 1015.98 1015.90 1015.59 1015.03 1014.27 1013.35 1012.37 1011.42 1010.62 1010.04 1009.72 1009.68 1009.91 1010.34 1010.92 1011.56 1012.22 1012.85 1013.44 1013.98 1014.50 1015.02 1015.55 1016.11 1016.69 1017.28 1017.86 1018.40 1018.90 1019.34 1019.73 1020.08 1020.40 1020.70 1021.00
1012.41 1012.73 1013.08 1013.48 1013.94 1014.43 1014.93 1015.38 1015.72 1015.88 1015.79 1015.44 1014.80 1013.93 1012.90 1011.81 1010.78 1009.91 1009.29 1008.97 1008.96 1009.23 1009.72 1010.37 1011.08 1011.79 1012.47 1013.08 1013.64 1014.17 1014.68 1015.21 1015.76 1016.34 1016.94 1017.53 1018.10 1018.63 1019.11 1019.54 1019.93 1020.29 1020.63 1020.97
1011.88 1012.21 1012.58 1013.01 1013.52 1014.07 1014.64 1015.15 1015.53 1015.69 1015.59 1015.19 1014.48 1013.53 1012.41 1011.24 1010.14 1009.23 1008.60 1008.29 1008.31 1008.63 1009.18 1009.89 1010.65 1011.41 1012.12 1012.75 1013.32 1013.83 1014.33 1014.84 1015.38 1015.95 1016.54 1017.14 1017.74 1018.30 1018.82 1019.29 1019.72 1020.13 1020.51 1020.89
1011.27 1011.63 1012.04 1012.52 1013.08 1013.69 1014.31 1014.85 1015.25 1015.41 1015.28 1014.84 1014.08 1013.07 1011.90 1010.68 1009.56 1008.64 1008.02 1007.73 1007.79 1008.15 1008.75 1009.50 1010.30 1011.09 1011.82 1012.45 1013.01 1013.51 1013.98 1014.47 1014.99 1015.54 1016.13 1016.74 1017.35 1017.94 1018.49 1019.01 1019.49 1019.93 1020.36 1020.76
1010.60 1011.01 1011.47 1012.01 1012.62 1013.27 1013.92 1014.48 1014.87 1015.02 1014.86 1014.39 1013.60 1012.57 1011.39 1010.18 1009.07 1008.18 1007.59 1007.34 1007.44 1007.84 1008.47 1009.24 1010.05 1010.85 1011.57 1012.20 1012.74 1013.22 1013.67 1014.13 1014.62 1015.16 1015.75 1016.36 1016.98 1017.59 1018.18 1018.73 1019.25 1019.73 1020.18 1020.61
1009.85 1010.32 1010.85 1011.45 1012.10 1012.79 1013.44 1014.00 1014.38 1014.50 1014.32 1013.83 1013.05 1012.03 1010.89 1009.73 1008.68 1007.85 1007.32 1007.12 1007.26 1007.67 1008.31 1009.08 1009.89 1010.66 1011.37 1011.98 1012.50 1012.96 1013.40 1013.84 1014.32 1014.85 1015.42 1016.03 1016.66 1017.29 1017.90 1018.48 1019.03 1019.54 1020.02 1020.47
1009.01 1009.57 1010.17 1010.83 1011.52 1012.22 1012.87 1013.41 1013.75 1013.85 1013.66 1013.17 1012.42 1011.47 1010.41 1009.34 1008.40 1007.66 1007.20 1007.06 1007.21 1007.64 1008.26 1008.99 1009.77 1010.51 1011.18 1011.77 1012.28 1012.73 1013.15 1013.59 1014.06 1014.59 1015.16 1015.78 1016.41 1017.05 1017.68 1018.28 1018.85 1019.38 1019.88 1020.34
1008.11 1008.75 1009.43 1010.14 1010.86 1011.56 1012.19 1012.69 1012.99 1013.06 1012.87 1012.41 1011.72 1010.86 1009.92 1008.99 1008.17 1007.55 1007.18 1007.08 1007.25 1007.66 1008.24 1008.92 1009.63 1010.33 1010.96 1011.52 1012.02 1012.47 1012.91 1013.36 1013.84 1014.37 1014.95 1015.57 1016.21 1016.86 1017.50 1018.11 1018.69 1019.24 1019.75 1020.22
1007.17 1007.89 1008.64 1009.39 1010.13 1010.82 1011.41 1011.86 1012.12 1012.16 1011.96 1011.55 1010.94 1010.21 1009.41 1008.63 1007.95 1007.45 1007.16 1007.11 1007.28 1007.65 1008.16 1008.77 1009.41 1010.04 1010.64 1011.18 1011.68 1012.15 1012.61 1013.09 1013.60 1014.15 1014.74 1015.37 1016.02 1016.67 1017.31 1017.93 1018.53 1019.09 1019.62 1020.10
1006.26 1007.05 1007.85 1008.63 1009.37 1010.02 1010.56 1010.95 1011.15 1011.16 1010.97 1010.60 1010.09 1009.47 1008.83 1008.21 1007.68 1007.29 1007.08 1007.05 1007.21 1007.52 1007.96 1008.48 1009.04 1009.61 1010.16 1010.70 1011.21 1011.71 1012.22 1012.74 1013.29 1013.87 1014.49 1015.13 1015.78 1016.43 1017.08 1017.71 1018.31 1018.89 1019.43 1019.93
1005.46 1006.30 1007.13 1007.91 1008.62 1009.23 1009.69 1010.00 1010.14 1010.10 1009.91 1009.58 1009.15 1008.66 1008.16 1007.69 1007.29 1007.01 1006.86 1006.85 1006.98 1007.23 1007.58 1008.02 1008.50 1009.00 1009.53 1010.06 1010.59 1011.14 1011.70 1012.27 1012.87 1013.50 1014.14 1014.79 1015.45 1016.11 1016.76 1017.39 1018.01 1018.60 1019.16 1019.69
1004.82 1005.69 1006.51 1007.28 1007.94 1008.47 1008.84 1009.06 1009.12 1009.03 1008.83 1008.52 1008.16 1007.77 1007.39 1007.04 1006.76 1006.57 1006.47 1006.47 1006.57 1006.76 1007.03 1007.38 1007.79 1008.25 1008.74 1009.28 1009.84 1010.43 1011.05 1011.69 1012.34 1013.00 1013.67 1014.34 1015.01 1015.68 1016.33 1016.97 1017.60 1018.21 1018.79 1019.34
1004.38 1005.23 1006.03 1006.74 1007.33 1007.77 1008.04 1008.16 1008.13 1007.98 1007.74 1007.45 1007.13 1006.82 1006.53 1006.29 1006.10 1005.98 1005.92 1005.93 1006.00 1006.14 1006.36 1006.64 1006.99 1007.41 1007.89 1008.43 1009.02 1009.66 1010.32 1011.01 1011.71 1012.41 1013.11 1013.79 1014.47 1015.14 1015.80 1016.45 1017.09 1017.72 1018.32 1018.88
1004.10 1004.91 1005.65 1006.29 1006.78 1007.12 1007.28 1007.30 1007.18 1006.96 1006.68 1006.38 1006.10 1005.84 1005.62 1005.46 1005.35 1005.29 1005.27 1005.29 1005.36 1005.47 1005.64 1005.88 1006.19 1006.58 1007.05 1007.60 1008.21 1008.88 1009.58 1010.30 1011.04 1011.76 1012.48 1013.18 1013.86 1014.54 1015.20 1015.86 1016.51 1017.15 1017.76 1018.33
1003.89 1004.63 1005.30 1005.84 1006.24 1006.47 1006.54 1006.46 1006.25 1005.98 1005.66 1005.36 1005.09 1004.87 1004.71 1004.62 1004.57 1004.57 1004.60 1004.65 1004.73 1004.84 1005.00 1005.22 1005.51 1005.88 1006.34 1006.89 1007.50 1008.18 1008.90 1009.64 1010.38 1011.12 1011.84 1012.55 1013.24 1013.92 1014.59 1015.25 1015.90 1016.54 1017.16 1017.73
1003.61 1004.28 1004.86 1005.32 1005.63 1005.78 1005.76 1005.60 1005.34 1005.02 1004.69 1004.38 1004.13 1003.95 1003.84 1003.81 1003.83 1003.90 1003.98 1004.09 1004.21 1004.35 1004.53 1004.75 1005.04 1005.41 1005.86 1006.38 1006.99 1007.65 1008.35 1009.08 1009.81 1010.54 1011.26 1011.96 1012.65 1013.33 1014.00 1014.66 1015.32 1015.95 1016.55 1017.11
1003.17 1003.75 1004.26 1004.64 1004.87 1004.96 1004.89 1004.70 1004.42 1004.09 1003.77 1003.48 1003.26 1003.12 1003.07 1003.10 1003.19 1003.33 1003.50 1003.68 1003.86 1004.06 1004.28 1004.53 1004.83 1005.19 1005.62 1006.13 1006.69 1007.31 1007.98 1008.67 1009.37 1010.07 1010.77 1011.46 1012.14 1012.82 1013.49 1014.14 1014.78 1015.40 1015.98 1016.50
1002.50 1003.00 1003.42 1003.74 1003.94 1004.00 1003.92 1003.74 1003.48 1003.18 1002.89 1002.64 1002.47 1002.39 1002.40 1002.50 1002.68 1002.90 1003.15 1003.42 1003.69 1003.97 1004.24 1004.54 1004.86 1005.22 1005.63 1006.09 1006.61 1007.17 1007.77 1008.40 1009.06 1009.72 1010.39 1011.06 1011.73 1012.40 1013.06 1013.70 1014.32 1014.91 1015.45 1015.93
1001.61 1002.03 1002.39 1002.67 1002.84 1002.90 1002.86 1002.72 1002.52 1002.29 1002.07 1001.89 1001.79 1001.77 1001.85 1002.03 1002.28 1002.59 1002.94 1003.30 1003.66 1004.02 1004.37 1004.71 1005.06 1005.42 1005.81 1006.23 1006.68 1007.17 1007.70 1008.27 1008.86 1009.47 1010.11 1010.76 1011.41 1012.06 1012.70 1013.33 1013.92 1014.47 1014.96 1015.39
1000.57 1000.92 1001.22 1001.47 1001.65 1001.75 1001.76 1001.70 1001.59 1001.46 1001.33 1001.23 1001.20 1001.26 1001.41 1001.65 1001.97 1002.36 1002.79 1003.24 1003.70 1004.14 1004.56 1004.95 1005.33 1005.70 1006.06 1006.43 1006.83 1007.25 1007.71 1008.21 1008.74 1009.31 1009.91 1010.53 1011.16 1011.79 1012.41 1013.01 1013.56 1014.06 1014.50 1014.87
999.52 999.78 1000.04 1000.27 1000.46 1000.61 1000.70 1000.74 1000.73 1000.70 1000.67 1000.67 1000.72 1000.84 1001.04 1001.34 1001.72 1002.17 1002.66 1003.19 1003.71 1004.23 1004.71 1005.16 1005.56 1005.94 1006.29 1006.63 1006.97 1007.34 1007.74 1008.18 1008.66 1009.19 1009.76 1010.35 1010.96 1011.57 1012.16 1012.71 1013.22 1013.66 1014.04 1014.35
998.56 998.75 998.95 999.16 999.37 999.57 999.74 999.88 999.98 1000.06 1000.13 1000.21 1000.33 1000.50 1000.74 1001.07 1001.48 1001.96 1002.50 1003.08 1003.66 1004.23 1004.76 1005.25 1005.69 1006.07 1006.42 1006.74 1007.06 1007.39 1007.74 1008.15 1008.60 1009.10 1009.64 1010.21 1010.79 1011.36 1011.91 1012.42 1012.87 1013.25 1013.56 1013.80
997.77 997.87 998.02 998.21 998.44 998.69 998.94 999.17 999.38 999.55 999.71 999.86 1000.02 1000.23 1000.49 1000.83 1001.25 1001.74 1002.30 1002.90 1003.51 1004.11 1004.69 1005.21 1005.68 1006.08 1006.44 1006.76 1007.07 1007.38 1007.72 1008.10 1008.54 1009.02 1009.54 1010.08 1010.63 1011.17 1011.67 1012.12 1012.50 1012.80 1013.04 1013.21
997.14 997.16 997.26 997.44 997.68 997.97 998.29 998.60 998.90 999.16 999.39 999.60 999.80 1000.03 1000.29 1000.63 1001.03 1001.52 1002.07 1002.67 1003.30 1003.92 1004.52 1005.07 1005.57 1006.00 1006.37 1006.71 1007.02 1007.34 1007.68 1008.06 1008.49 1008.96 1009.46 1009.98 1010.50 1010.99 1011.42 1011.80 1012.10 1012.32 1012.48 1012.58
Thickness
5648 5649 5652 5660 5663 5664 5661 5660 5661 5668 5670 5665 5673 5684 5697 5704 5705 5707 5711 5714 5713 5712 5711 5705 5700 5695 5691 5688 5683 5679 5673 5668 5662 5657 5651 5645 5640 5635 5630 5626 5622 5618 5615 5612
5635 5644 5660 5659 5654 5650 5650 5650 5655 5662 5660 5657 5667 5678 5695 5702 5703 5707 5710 5713 5713 5711 5706 5698 5694 5690 5687 5683 5679 5674 5669 5664 5659 5654 5648 5642 5635 5628 5623 5618 5614 5611 5608 5604
5639 5652 5653 5644 5640 5639 5643 5646 5651 5651 5655 5653 5652 5673 5691 5700 5701 5702 5704 5707 5709 5707 5703 5697 5690 5686 5682 5678 5674 5669 5665 5659 5654 5648 5641 5633 5626 5620 5615 5611 5607 5603 5600 5596
5634 5640 5636 5636 5638 5639 5639 5646 5643 5641 5639 5647 5645 5652 5684 5693 5695 5698 5700 5702 5703 5701 5698 5694 5687 5681 5677 5673 5668 5663 5658 5653 5647 5642 5637 5632 5626 5620 5614 5608 5602 5596 5592 5588
5630 5634 5631 5633 5641 5638 5640 5639 5633 5632 5633 5636 5642 5639 5673 5688 5688 5697 5699 5698 5697 5695 5692 5688 5683 5677 5671 5665 5660 5656 5651 5646 5640 5636 5632 5627 5622 5616 5608 5601 5595 5589 5584 5579
5627 5627 5632 5637 5637 5633 5627 5624 5619 5620 5625 5625 5642 5637 5660 5683 5687 5691 5694 5693 5690 5688 5684 5680 5675 5669 5663 5656 5651 5647 5643 5638 5633 5629 5626 5622 5616 5609 5601 5595 5589 5583 5577 5571
5608 5613 5621 5627 5621 5618 5622 5620 5612 5613 5616 5628 5635 5631 5656 5682 5684 5683 5683 5686 5685 5681 5677 5673 5667 5662 5656 5649 5645 5641 5637 5632 5627 5622 5619 5615 5609 5603 5597 5590 5584 5577 5571 5565
5607 5609 5618 5623 5629 5622 5622 5622 5615 5612 5620 5628 5619 5629 5662 5677 5677 5675 5675 5676 5675 5673 5670 5666 5661 5657 5651 5645 5639 5635 5631 5626 5621 5616 5612 5608 5602 5596 5590 5584 5578 5572 5566 5559
5616 5615 5621 5623 5628 5627 5615 5616 5628 5618 5612 5610 5627 5640 5656 5670 5671 5669 5670 5669 5669 5666 5661 5658 5654 5650 5646 5640 5634 5630 5626 5621 5615 5610 5605 5600 5594 5588 5582 5575 5569 5563 5557 5550
5625 5613 5608 5609 5611 5615 5622 5620 5607 5604 5600 5604 5622 5630 5645 5659 5663 5664 5665 5665 5663 5658 5654 5651 5647 5643 5639 5634 5628 5624 5620 5615 5609 5603 5598 5592 5587 5580 5574 5567 5561 5555 5548 5541
5620 5609 5594 5597 5606 5611 5607 5607 5612 5611 5612 5609 5614 5632 5654 5657 5656 5655 5657 5658 5656 5653 5648 5644 5641 5637 5632 5627 5622 5617 5613 5608 5602 5597 5591 5585 5579 5572 5566 5559 5553 5546 5539 5532
5613 5609 5596 5600 5608 5615 5616 5617 5614 5606 5606 5608 5613 5630 5654 5650 5649 5647 5649 5650 5650 5647 5643 5639 5635 5631 5626 5621 5616 5612 5607 5602 5597 5591 5585 5579 5571 5564 5557 5551 5545 5537 5531 5524
5605 5598 5586 5582 5587 5593 5602 5611 5615 5615 5612 5608 5606 5625 5645 5642 5642 5642 5642 5645 5645 5641 5637 5634 5630 5626 5622 5618 5613 5608 5603 5597 5591 5584 5578 5571 5564 5557 5551 5544 5536 5529 5522 5516
5606 5600 5600 5604 5612 5609 5601 5603 5606 5605 5604 5609 5615 5624 5635 5637 5638 5641 5641 5641 5641 5638 5633 5630 5626 5623 5619 5615 5610 5605 5599 5592 5585 5578 5572 5565 5558 5551 5544 5536 5528 5521 5514 5507
5595 5594 5602 5609 5608 5608 5607 5605 5603 5604 5613 5613 5622 5623 5630 5634 5636 5638 5638 5636 5634 5632 5629 5625 5623 5621 5616 5611 5606 5601 5595 5587 5579 5572 5566 5559 5551 5543 5535 5527 5519 5512 5505 5499
5589 5591 5593 5591 5593 5596 5597 5603 5604 5605 5610 5613 5616 5622 5634 5634 5633 5631 5632 5630 5628 5628 5627 5623 5619 5616 5613 5608 5603 5596 5590 5582 5574 5567 5560 5551 5542 5534 5526 5519 5511 5504 5497 5490
5585 5586 5584 5586 5583 5579 5587 5605 5606 5607 5611 5612 5612 5624 5629 5625 5624 5625 5627 5626 5626 5626 5624 5620 5617 5613 5609 5605 5599 5592 5585 5576 5567 5561 5552 5543 5535 5526 5518 5510 5503 5496 5489 5483
5582 5582 5583 5579 5571 5567 5606 5617 5615 5611 5613 5615 5617 5624 5626 5625 5624 5624 5624 5623 5623 5621 5618 5615 5612 5607 5603 5597 5591 5584 5576 5568 5560 5553 5544 5535 5527 5518 5510 5502 5495 5488 5482 5475
5581 5578 5572 5569 5573 5586 5598 5603 5606 5604 5610 5620 5617 5619 5620 5616 5612 5619 5620 5617 5617 5615 5612 5609 5604 5600 5594 5588 5582 5574 5567 5559 5551 5545 5536 5527 5519 5510 5502 5494 5487 5480 5473 5467
5565 5575 5570 5567 5570 5578 5605 5610 5607 5603 5604 5624 5618 5617 5615 5605 5606 5618 5615 5610 5607 5603 5599 5595 5591 5588 5583 5577 5571 5565 5558 5550 5543 5536 5527 5518 5510 5502 5494 5486 5479 5471 5464 5458
5555 5560 5567 5570 5574 5591 5605 5599 5597 5593 5612 5622 5619 5617 5612 5606 5613 5611 5603 5599 5595 5591 5586 5582 5580 5576 5572 5566 5561 5555 5548 5541 5533 5524 5516 5507 5499 5492 5484 5476 5469 5461 5454 5448
5566 5565 5566 5569 5571 5584 5595 5591 5600 5613 5616 5613 5613 5612 5609 5606 5601 5595 5592 5587 5583 5578 5574 5571 5568 5563 5558 5553 5549 5544 5536 5528 5519 5512 5504 5496 5489 5480 5472 5466 5458 5451 5444 5438
5575 5582 5584 5585 5594 5603 5598 5604 5609 5608 5608 5607 5607 5605 5601 5596 5592 5587 5583 5578 5573 5569 5564 5560 5557 5550 5545 5540 5537 5532 5523 5514 5507 5500 5492 5485 5477 5469 5462 5455 5449 5442 5435 5428
5565 5569 5576 5579 5587 5592 5593 5597 5597 5598 5601 5601 5600 5597 5594 5591 5587 5581 5575 5569 5564 5558 5553 5548 5545 5540 5533 5528 5523 5518 5509 5502 5495 5489 5481 5473 5466 5459 5452 5444 5437 5431 5424 5418
5569 5564 5571 5579 5582 5582 5586 5590 5593 5591 5591 5590 5588 5588 5587 5585 5580 5575 5569 5562 5556 5548 5542 5538 5535 5530 5522 5515 5509 5503 5496 5490 5484 5477 5469 5462 5455 5448 5442 5435 5428 5421 5415 5406
5564 5570 5575 5584 5586 5588 5593 5595 5590 5586 5584 5584 5581 5577 5576 5575 5573 5567 5561 5554 5546 5539 5532 5526 5523 5517 5510 5503 5496 5490 5484 5478 5472 5466 5459 5451 5444 5437 5430 5425 5418 5411 5402 5394